Location: Unspecified
(0.0000°N, 0.0000°E)
Time: 04:46:47
(UTC+00:00)

A-11 Canister half - Pass Details

Date: 25 April 2026
Orbit: 1523 x 1685 km, 47.3° (Epoch: 13 May)

Event Time Altitude Azimuth Distance (km) Brightness Sun altitude
Rises 05:40:06 0° 342° (NNW) 4,907 11.6 -4.4°
Reaches altitude 10° 05:44:00 10° 354° (N) 3,905 11.2 -3.4°
Maximum altitude 05:52:02 27° 48° (NE) 2,739 11.3 -1.5°
Drops below altitude 10° 05:59:51 10° 102° (ESE) 3,817 12.4 0.4°
Sets 06:03:33 0° 113° (ESE) 4,778 12.6 1.3°
